When you browse on this site, cookies collect data to enhance your experience and personalize the content and advertising you see.
Visit our Privacy Policy to learn more. By continuing to use the site, you agree to this use of cookies and data.

Hourly Weather Rogozha

Today, 10 July, Friday

Time Temperature Precipitation Wind Pressure Humidity
00:00 +9°C° 0 mm 2 mps 742 mmHg 84%
01:00 +9°C° 0 mm 2 mps 742 mmHg 86%
02:00 +9°C° 0 mm 1 mps 743 mmHg 89%
03:00 +10°C° 0 mm 1 mps 743 mmHg 87%
04:00 +10°C° 0 mm 1 mps 743 mmHg 86%
05:00 +10°C° 0 mm 2 mps 743 mmHg 84%
06:00 +13°C° 0 mm 2 mps 743 mmHg 76%
07:00 +15°C° 0 mm 2 mps 744 mmHg 68%
08:00 +17°C° 0 mm 3 mps 744 mmHg 60%
09:00 +18°C° 0 mm 3 mps 744 mmHg 56%
10:00 +19°C° 0 mm 3 mps 743 mmHg 52%
11:00 +20°C° 0 mm 3 mps 743 mmHg 48%
12:00 +21°C° 0 mm 4 mps 743 mmHg 47%
13:00 +21°C° 0 mm 4 mps 743 mmHg 46%
14:00 +22°C° 0 mm 4 mps 743 mmHg 45%
15:00 +19°C° 0.4 mm 3 mps 742 mmHg 60%
16:00 +17°C° 0.4 mm 3 mps 742 mmHg 75%
17:00 +15°C° 0.4 mm 2 mps 742 mmHg 90%
18:00 +14°C° 1 mm 3 mps 742 mmHg 92%
19:00 +14°C° 1 mm 3 mps 741 mmHg 94%
20:00 +14°C° 1 mm 4 mps 741 mmHg 96%
21:00 +14°C° 0.6 mm 4 mps 741 mmHg 96%
22:00 +15°C° 0.6 mm 4 mps 740 mmHg 96%
23:00 +15°C° 0.6 mm 5 mps 740 mmHg 96%

Tomorrow, 11 July, Saturday

Time Temperature Precipitation Wind Pressure Humidity
00:00 +16°C° 0 mm 5 mps 740 mmHg 96%
01:00 +17°C° 0 mm 4 mps 740 mmHg 96%
02:00 +17°C° 0 mm 4 mps 740 mmHg 96%
03:00 +17°C° 0 mm 4 mps 740 mmHg 96%
04:00 +18°C° 0 mm 4 mps 740 mmHg 96%
05:00 +18°C° 0 mm 4 mps 739 mmHg 96%
06:00 +18°C° 0.1 mm 4 mps 739 mmHg 95%
07:00 +17°C° 0.1 mm 5 mps 739 mmHg 94%
08:00 +19°C° 0.1 mm 5 mps 739 mmHg 93%
09:00 +20°C° 0.3 mm 5 mps 739 mmHg 92%
10:00 +20°C° 0.3 mm 5 mps 739 mmHg 90%
11:00 +21°C° 0.3 mm 6 mps 739 mmHg 88%
12:00 +22°C° 0.2 mm 6 mps 739 mmHg 86%
13:00 +22°C° 0.2 mm 6 mps 739 mmHg 84%
14:00 +23°C° 0.2 mm 6 mps 739 mmHg 82%
15:00 +23°C° 0.1 mm 6 mps 740 mmHg 70%
16:00 +23°C° 0.1 mm 5 mps 740 mmHg 58%
17:00 +25°C° 0.1 mm 5 mps 741 mmHg 46%
18:00 +22°C° 0 mm 4 mps 741 mmHg 54%
19:00 +19°C° 0 mm 4 mps 741 mmHg 62%
20:00 +17°C° 0 mm 3 mps 742 mmHg 70%
21:00 +16°C° 0 mm 2 mps 742 mmHg 75%
22:00 +15°C° 0 mm 2 mps 742 mmHg 80%
23:00 +13°C° 0 mm 2 mps 743 mmHg 85%

Day after tomorrow, 12 July, Sunday

Time Temperature Precipitation Wind Pressure Humidity
00:00 +13°C° 0 mm 2 mps 743 mmHg 86%
01:00 +12°C° 0 mm 2 mps 743 mmHg 87%
02:00 +12°C° 0 mm 1 mps 743 mmHg 89%
03:00 +12°C° 0 mm 1 mps 743 mmHg 87%
04:00 +13°C° 0 mm 1 mps 743 mmHg 84%
05:00 +14°C° 0 mm 1 mps 743 mmHg 82%
06:00 +14°C° 0.1 mm 1 mps 744 mmHg 83%
07:00 +13°C° 0.1 mm 1 mps 744 mmHg 84%
08:00 +13°C° 0.1 mm 1 mps 744 mmHg 86%
09:00 +13°C° 0.4 mm 1 mps 744 mmHg 89%
10:00 +13°C° 0.4 mm 1 mps 744 mmHg 92%
11:00 +12°C° 0.4 mm 1 mps 744 mmHg 95%
12:00 +12°C° 0.6 mm 1 mps 744 mmHg 96%
13:00 +12°C° 0.6 mm 1 mps 744 mmHg 96%
14:00 +12°C° 0.6 mm 1 mps 744 mmHg 96%
15:00 +12°C° 0.1 mm 1 mps 744 mmHg 96%
16:00 +11°C° 0.1 mm 0 mps 743 mmHg 96%
17:00 +11°C° 0.1 mm 0 mps 743 mmHg 96%
18:00 +11°C° 0.3 mm 0 mps 743 mmHg 96%
19:00 +12°C° 0.3 mm 1 mps 743 mmHg 96%
20:00 +11°C° 0.3 mm 1 mps 743 mmHg 96%
21:00 +11°C° 0.1 mm 1 mps 743 mmHg 96%
22:00 +11°C° 0.1 mm 1 mps 743 mmHg 96%
23:00 +11°C° 0.1 mm 1 mps 742 mmHg 96%

13 July, Monday

Time Temperature Precipitation Wind Pressure Humidity
00:00 +12°C° 0.3 mm 1 mps 742 mmHg 97%
01:00 +12°C° 0.3 mm 2 mps 742 mmHg 97%
02:00 +12°C° 0.3 mm 2 mps 742 mmHg 97%
03:00 +12°C° 0.9 mm 2 mps 742 mmHg 97%
04:00 +12°C° 0.9 mm 2 mps 741 mmHg 98%
05:00 +12°C° 0.9 mm 2 mps 741 mmHg 98%
06:00 +11°C° 1.9 mm 3 mps 741 mmHg 98%
07:00 +11°C° 1.9 mm 3 mps 741 mmHg 98%
08:00 +11°C° 1.9 mm 3 mps 741 mmHg 98%
09:00 +11°C° 1.8 mm 3 mps 740 mmHg 97%
10:00 +11°C° 1.8 mm 3 mps 740 mmHg 97%
11:00 +11°C° 1.8 mm 3 mps 740 mmHg 97%
12:00 +12°C° 0.1 mm 3 mps 740 mmHg 96%
13:00 +12°C° 0.1 mm 3 mps 740 mmHg 95%
14:00 +13°C° 0.1 mm 2 mps 739 mmHg 94%
15:00 +14°C° 0 mm 2 mps 739 mmHg 92%
16:00 +14°C° 0 mm 2 mps 739 mmHg 90%
17:00 +14°C° 0 mm 2 mps 738 mmHg 89%
18:00 +14°C° 0 mm 2 mps 738 mmHg 90%
19:00 +13°C° 0 mm 2 mps 738 mmHg 92%
20:00 +13°C° 0 mm 2 mps 738 mmHg 93%
21:00 +12°C° 0 mm 2 mps 738 mmHg 95%
22:00 +12°C° 0 mm 2 mps 738 mmHg 96%
23:00 +10°C° 0 mm 2 mps 737 mmHg 98%

14 July, Tuesday

Time Temperature Precipitation Wind Pressure Humidity
00:00 +10°C° 0 mm 2 mps 737 mmHg 97%
01:00 +12°C° 0 mm 2 mps 737 mmHg 97%
02:00 +11°C° 0 mm 3 mps 737 mmHg 96%
03:00 +11°C° 0 mm 3 mps 737 mmHg 95%
04:00 +11°C° 0 mm 3 mps 737 mmHg 93%
05:00 +11°C° 0 mm 4 mps 736 mmHg 92%
06:00 +13°C° 0 mm 4 mps 737 mmHg 84%
07:00 +14°C° 0 mm 4 mps 737 mmHg 76%
08:00 +16°C° 0 mm 5 mps 737 mmHg 69%
09:00 +17°C° 0 mm 5 mps 737 mmHg 64%
10:00 +19°C° 0 mm 5 mps 737 mmHg 59%
11:00 +20°C° 0 mm 5 mps 737 mmHg 54%
12:00 +21°C° 0 mm 5 mps 736 mmHg 52%
13:00 +21°C° 0 mm 5 mps 736 mmHg 50%
14:00 +22°C° 0 mm 5 mps 736 mmHg 48%
15:00 +21°C° 0 mm 5 mps 736 mmHg 50%
16:00 +21°C° 0 mm 5 mps 736 mmHg 52%
17:00 +21°C° 0 mm 5 mps 736 mmHg 53%
18:00 +19°C° 0 mm 5 mps 736 mmHg 56%
19:00 +17°C° 0 mm 4 mps 737 mmHg 59%
20:00 +15°C° 0 mm 4 mps 737 mmHg 62%
21:00 +14°C° 0 mm 3 mps 737 mmHg 65%
22:00 +12°C° 0 mm 3 mps 737 mmHg 68%
23:00 +11°C° 0 mm 3 mps 737 mmHg 72%

15 July, Wednesday

Time Temperature Precipitation Wind Pressure Humidity
00:00 +12°C° 0 mm 2 mps 737 mmHg 75%
01:00 +10°C° 0 mm 2 mps 738 mmHg 79%
02:00 +9°C° 0 mm 2 mps 738 mmHg 83%
03:00 +9°C° 0 mm 2 mps 738 mmHg 83%
04:00 +9°C° 0 mm 2 mps 738 mmHg 82%
05:00 +10°C° 0 mm 3 mps 738 mmHg 82%
06:00 +12°C° 0 mm 3 mps 738 mmHg 73%
07:00 +14°C° 0 mm 3 mps 738 mmHg 65%
08:00 +17°C° 0 mm 4 mps 738 mmHg 57%
09:00 +18°C° 0 mm 4 mps 739 mmHg 54%
10:00 +19°C° 0 mm 4 mps 739 mmHg 51%
11:00 +20°C° 0 mm 5 mps 739 mmHg 48%
12:00 +20°C° 0 mm 5 mps 739 mmHg 49%
13:00 +20°C° 0 mm 4 mps 739 mmHg 50%
14:00 +21°C° 0 mm 4 mps 739 mmHg 50%
15:00 +20°C° 0 mm 4 mps 739 mmHg 53%
16:00 +20°C° 0 mm 4 mps 739 mmHg 55%
17:00 +20°C° 0 mm 3 mps 740 mmHg 58%
18:00 +18°C° 0 mm 3 mps 740 mmHg 66%
19:00 +17°C° 0 mm 2 mps 740 mmHg 74%
20:00 +15°C° 0 mm 1 mps 740 mmHg 82%
21:00 +14°C° 0 mm 1 mps 741 mmHg 86%
22:00 +13°C° 0 mm 1 mps 741 mmHg 90%
23:00 +11°C° 0 mm 1 mps 741 mmHg 95%
Show more